Weather History for San Antonio Stinson, TX

Change the Weather History Date:

Friday, January 4, 2013

  Actual Average Record
Temperature  
Mean Temperature 42 °F -  
Max Temperature 44 °F 62 °F 79 °F (2005)
Min Temperature 39 °F 39 °F 26 °F (2002)
Degree Days  
Heating Degree Days 24    
Moisture  
Dew Point 36 °F    
Average Humidity 79    
Maximum Humidity 89    
Minimum Humidity 55    
Precipitation  
Precipitation 0.05 in - - ()
Sea Level Pressure  
Sea Level Pressure 30.45 in    
Wind  
Wind Speed 7 mph (NNE)    
Max Wind Speed 13 mph    
Max Gust Speed 20 mph    
Visibility 10 miles    
Events Rain    
Averages and records for this station are not official NWS values.
T = Trace of Precipitation, MM = Missing Value Source: NWS Daily Summary

Daily Weather History Graph

Daily Weather History Graph

Search for Another Location

Airport:

Trip Planner

Search our weather history database for the weather conditions in past years. The results will help you decide how hot, cold, wet, or windy it might be!

Date:

Astronomy

Jan. 04, 2013 Rise Set
Actual Time 7:29 AM CST 5:49 PM CST
Civil Twilight 7:03 AM CST 6:15 PM CST
Nautical Twilight 6:33 AM CST 6:44 PM CST
Astronomical Twilight 6:04 AM CST 7:13 PM CST
Moon No Moon Rise 11:47 AM CST (1/4)
Length of Visible Light 11h 12m
Length of Day
10h 20m
Waning Gibbous, 55% of the Moon is Illuminated
Jan 4
Waning Gibbous
Jan 4
Last Quarter
Jan 11
New
Jan 18
First Quarter
Jan 26
Full

Hourly Weather History & Observations

Time (CST) Temp. Windchill Dew Point Humidity Pressure Visibility Wind Dir Wind Speed Gust Speed Precip Events Conditions
12:53 AM 44.1 °F 40.8 °F 28.9 °F 55% 30.41 in 10.0 mi NNE 5.8 mph - N/A   Overcast
1:53 AM 44.1 °F 40.8 °F 30.0 °F 58% 30.42 in 10.0 mi North 5.8 mph - 0.00 in Rain Light Rain
2:53 AM 43.0 °F 39.5 °F 33.1 °F 68% 30.44 in 10.0 mi North 5.8 mph - 0.00 in   Overcast
3:53 AM 39.9 °F 35.8 °F 36.0 °F 86% 30.45 in 4.0 mi NNW 5.8 mph - 0.05 in Rain Rain
4:53 AM 41.0 °F 34.3 °F 35.1 °F 79% 30.45 in 10.0 mi North 11.5 mph - 0.00 in   Overcast
5:53 AM 39.9 °F 32.5 °F 35.1 °F 83% 30.45 in 10.0 mi NNE 12.7 mph 19.6 mph N/A   Overcast
6:53 AM 39.9 °F 33.9 °F 35.1 °F 83% 30.48 in 10.0 mi NNE 9.2 mph - N/A   Overcast
7:53 AM 39.0 °F 33.4 °F 36.0 °F 89% 30.49 in 10.0 mi NNE 8.1 mph - 0.00 in   Overcast
8:53 AM 39.0 °F 32.8 °F 36.0 °F 89% 30.51 in 8.0 mi NNE 9.2 mph - 0.00 in Rain Light Rain
9:53 AM 39.9 °F 33.9 °F 37.0 °F 89% 30.53 in 10.0 mi NNE 9.2 mph - 0.00 in Rain Light Rain
10:53 AM 39.9 °F 33.4 °F 37.0 °F 89% 30.53 in 10.0 mi NE 10.4 mph - 0.00 in   Overcast
11:53 AM 41.0 °F 35.2 °F 37.0 °F 86% 30.49 in 10.0 mi NNE 9.2 mph - 0.00 in   Overcast
12:53 PM 42.1 °F 36.1 °F 36.0 °F 79% 30.45 in 10.0 mi NNE 10.4 mph - N/A   Overcast
1:53 PM 43.0 °F 38.2 °F 36.0 °F 76% 30.42 in 10.0 mi NNE 8.1 mph - N/A   Overcast
2:53 PM 43.0 °F 37.7 °F 36.0 °F 76% 30.40 in 10.0 mi NNE 9.2 mph - N/A   Overcast
3:53 PM 44.1 °F 40.1 °F 35.1 °F 71% 30.41 in 10.0 mi NE 6.9 mph - N/A   Overcast
4:53 PM 44.1 °F 40.8 °F 35.1 °F 71% 30.41 in 10.0 mi NE 5.8 mph - N/A   Overcast
5:53 PM 43.0 °F 39.5 °F 36.0 °F 76% 30.41 in 10.0 mi NNE 5.8 mph - N/A   Overcast
6:53 PM 43.0 °F 39.5 °F 37.0 °F 80% 30.43 in 10.0 mi NNE 5.8 mph - N/A   Overcast
7:53 PM 42.1 °F 38.4 °F 37.9 °F 85% 30.43 in 10.0 mi NNE 5.8 mph - 0.00 in   Overcast
8:53 PM 42.1 °F - 37.0 °F 82% 30.44 in 10.0 mi Calm Calm - N/A   Overcast
9:53 PM 42.1 °F 40.2 °F 37.0 °F 82% 30.44 in 10.0 mi North 3.5 mph - N/A   Overcast
10:53 PM 42.1 °F 39.2 °F 37.0 °F 82% 30.43 in 10.0 mi North 4.6 mph - N/A   Overcast
11:53 PM 42.1 °F - 37.0 °F 82% 30.42 in 10.0 mi Calm Calm - N/A   Overcast